FW6696 Weather Reports


time (UTC)temp
C
wind
direction
speed
KPH
gust
KPH
rain 1hr
cm
rain 24hr
cm
rain mn
cm
humidity
%
barometer
mb
20260503010005 9 275 3.2 6.4 0.00 0.00 0.00 55 1004.5
20260503005032 9 112 1.6 3.2 0.00 0.00 0.00 57 1004.3
20260503004029 9 98 0.0 0.0 0.00 0.00 0.00 57 1004.1
20260503003021 9 70 0.0 0.0 0.00 0.00 0.00 56 1004.1
20260503002010 9 84 0.0 0.0 0.00 0.00 0.00 58 1004.0
20260502234032 10 103 0.0 0.0 0.00 0.00 0.00 53 1003.6
20260502233001 11 122 0.0 0.0 0.00 0.00 0.00 57 1003.4
20260502232016 11 123 0.0 0.0 0.00 0.00 0.00 56 1003.4
20260502231033 11 104 0.0 0.0 0.00 0.00 0.00 57 1003.5
20260502224024 11 94 0.0 0.0 0.00 0.00 0.00 59 1003.3
20260502223043 12 100 0.0 0.0 0.00 0.00 0.00 53 1003.4
20260502222043 11 111 0.0 0.0 0.00 0.00 0.00 49 1003.3
20260502221019 11 166 1.6 3.2 0.00 0.00 0.00 51 1003.3
20260502220015 12 106 0.0 0.0 0.00 0.00 0.00 50 1003.2
20260502215002 12 79 1.6 3.2 0.00 0.00 0.00 53 1003.0
20260502214030 12 357 1.6 3.2 0.00 0.00 0.00 50 1002.9
20260502213041 12 126 3.2 3.2 0.00 0.00 0.00 50 1002.9
20260502212021 12 76 1.6 3.2 0.00 0.00 0.00 49 1002.9
20260502211024 12 180 4.8 4.8 0.00 0.00 0.00 50 1002.9
20260502210022 12 14 1.6 3.2 0.00 0.00 0.00 51 1003.0
20260502205024 11 83 0.0 0.0 0.00 0.00 0.00 55 1003.2
20260502204029 11 100 1.6 3.2 0.00 0.00 0.00 53 1003.1
20260502203045 12 105 0.0 0.0 0.00 0.00 0.00 53 1003.2
20260502202034 12 157 1.6 3.2 0.00 0.00 0.00 51 1003.2
20260502200014 13 103 4.8 6.4 0.00 0.00 0.00 46 1003.3
20260502194025 12 110 1.6 3.2 0.00 0.00 0.00 48 1003.6
20260502191001 12 104 1.6 3.2 0.00 0.00 0.00 48 1003.8
20260502181042 12 92 0.0 0.0 0.00 0.00 0.00 50 1003.8
20260502164007 12 77 1.6 4.8 0.00 0.00 0.00 52 1004.5
20260502163004 12 66 3.2 3.2 0.00 0.00 0.00 53 1004.6
20260502162004 12 141 1.6 3.2 0.00 0.00 0.00 52 1004.7
20260502152011 12 83 0.0 0.0 0.00 0.00 0.00 53 1004.7
20260502151026 12 28 1.6 3.2 0.00 0.00 0.00 51 1005.0
20260502122028 6 114 1.6 3.2 0.00 0.00 0.00 95 1004.6
20260502121005 5 117 1.6 3.2 0.00 0.00 0.00 98 1004.7
20260502115020 3 95 0.0 0.0 0.00 0.00 0.00 99 1005.0
20260502113037 2 88 0.0 0.0 0.00 0.00 0.00 99 1004.8
20260502112015 2 83 0.0 0.0 0.00 0.00 0.00 99 1004.6
20260502111031 2 83 0.0 0.0 0.00 0.00 0.00 99 1004.5
20260502110013 2 91 0.0 0.0 0.00 0.00 0.00 99 1004.7
20260502105042 2 89 0.0 0.0 0.00 0.00 0.00 99 1004.4
20260502104002 2 86 0.0 0.0 0.00 0.00 0.00 99 1004.4
20260502103003 2 81 0.0 0.0 0.00 0.00 0.00 99 1004.2
20260502102019 2 83 0.0 0.0 0.00 0.00 0.00 99 1004.7
20260502101039 2 91 0.0 0.0 0.00 0.00 0.00 99 1004.7
20260502071030 3 86 0.0 0.0 0.00 0.00 0.00 97 1004.6
20260502070017 3 81 0.0 0.0 0.00 0.00 0.00 97 1004.5
20260502065007 3 83 0.0 0.0 0.00 0.00 0.00 96 1004.4
20260502064043 4 80 0.0 0.0 0.00 0.00 0.00 96 1004.7
20260502063029 4 70 1.6 3.2 0.00 0.00 0.00 95 1004.6
20260502062011 4 64 0.0 0.0 0.00 0.00 0.00 94 1005.0
20260502061013 4 80 0.0 0.0 0.00 0.00 0.00 93 1005.0
20260502060003 5 66 1.6 3.2 0.00 0.00 0.00 93 1005.0
20260502055011 5 79 0.0 0.0 0.00 0.00 0.00 91 1004.8
20260502054024 5 76 0.0 0.0 0.00 0.00 0.00 90 1004.6
20260502053036 5 71 1.6 3.2 0.00 0.00 0.00 89 1005.0
20260502051010 6 81 0.0 0.0 0.00 0.00 0.00 86 1005.1
20260502050021 6 80 0.0 0.0 0.00 0.00 0.00 85 1005.3
20260502045013 6 83 0.0 0.0 0.00 0.00 0.00 83 1005.1
20260502044014 7 78 0.0 0.0 0.00 0.00 0.00 82 1005.3
20260502043009 7 60 1.6 3.2 0.00 0.00 0.00 82 1005.4
20260502042006 7 61 1.6 3.2 0.00 0.00 0.00 80 1005.2
20260502041004 7 67 1.6 3.2 0.00 0.00 0.00 79 1005.1
20260502040027 7 91 0.0 0.0 0.00 0.00 0.00 77 1005.1
20260502035020 8 68 1.6 3.2 0.00 0.00 0.00 77 1005.1
20260502034012 8 83 0.0 0.0 0.00 0.00 0.00 75 1004.9
20260502032009 8 72 0.0 0.0 0.00 0.00 0.00 74 1005.4
20260502031015 8 83 0.0 0.0 0.00 0.00 0.00 74 1005.2
20260502030009 8 51 1.6 3.2 0.00 0.00 0.00 73 1005.2
20260502025029 8 84 0.0 0.0 0.00 0.00 0.00 73 1005.1
20260502024017 9 54 1.6 3.2 0.00 0.00 0.00 71 1004.9
20260502023023 9 109 1.6 3.2 0.00 0.00 0.00 71 1005.1
20260502022026 9 101 1.6 3.2 0.00 0.00 0.00 70 1005.0
20260502020023 10 83 3.2 3.2 0.00 0.00 0.00 70 1004.4
20260502013038 10 150 3.2 4.8 0.00 0.00 0.00 72 1003.7
20260502012046 11 249 4.8 4.8 0.00 0.00 0.00 73 1003.4
20260502011041 11 176 1.6 3.2 0.00 0.00 0.00 72 1003.6